TimeCST,TemperatureF,Dew PointF,Humidity,Sea Level PressureIn,VisibilityMPH,Wind Direction,Wind SpeedMPH,Gust SpeedMPH,PrecipitationIn,Events,Conditions,WindDirDegrees,DateUTC
12:15 AM,33.4,33.4,100,30.12,7.0,Calm,Calm,-,N/A,,Clear,0,2013-02-14 06:15:00
12:35 AM,33.4,33.4,100,30.13,10.0,Calm,Calm,-,N/A,,Clear,0,2013-02-14 06:35:00
12:55 AM,33.1,33.1,100,30.13,10.0,Calm,Calm,-,N/A,,Clear,0,2013-02-14 06:55:00
1:15 AM,32.4,32.4,100,30.13,7.0,Calm,Calm,-,N/A,,Clear,0,2013-02-14 07:15:00
1:35 AM,32.7,32.7,100,30.13,7.0,Calm,Calm,-,N/A,,Clear,0,2013-02-14 07:35:00
1:55 AM,32.0,32.0,100,30.12,7.0,Calm,Calm,-,N/A,,Clear,0,2013-02-14 07:55:00
2:15 AM,32.0,32.0,100,30.12,7.0,Calm,Calm,-,N/A,,Clear,0,2013-02-14 08:15:00
2:35 AM,32.0,32.0,100,30.12,10.0,Calm,Calm,-,N/A,,Clear,0,2013-02-14 08:35:00
2:55 AM,31.8,31.8,100,30.12,10.0,Calm,Calm,-,N/A,,Clear,0,2013-02-14 08:55:00
3:15 AM,31.8,31.8,100,30.12,10.0,Calm,Calm,-,N/A,,Clear,0,2013-02-14 09:15:00
3:55 AM,32.2,32.2,100,30.11,10.0,Calm,Calm,-,N/A,,Clear,0,2013-02-14 09:55:00
4:15 AM,32.0,32.0,100,30.12,7.0,Calm,Calm,-,N/A,,Clear,0,2013-02-14 10:15:00
4:35 AM,32.9,32.9,100,30.12,10.0,Calm,Calm,-,N/A,,Clear,0,2013-02-14 10:35:00
4:55 AM,31.8,31.8,100,30.13,5.0,Calm,Calm,-,N/A,,Clear,0,2013-02-14 10:55:00
5:15 AM,31.8,31.8,100,30.13,7.0,Calm,Calm,-,N/A,,Clear,0,2013-02-14 11:15:00
5:35 AM,32.0,32.0,100,30.14,10.0,Calm,Calm,-,N/A,,Clear,0,2013-02-14 11:35:00
5:55 AM,31.6,31.6,100,30.15,5.0,Calm,Calm,-,N/A,,Clear,0,2013-02-14 11:55:00
6:15 AM,32.0,32.0,100,30.15,10.0,Calm,Calm,-,N/A,,Clear,0,2013-02-14 12:15:00
6:35 AM,32.0,32.0,100,30.15,10.0,Calm,Calm,-,N/A,,Clear,0,2013-02-14 12:35:00
6:55 AM,33.1,33.1,100,30.16,7.0,Calm,Calm,-,N/A,,Clear,0,2013-02-14 12:55:00
7:15 AM,34.0,34.0,100,30.16,7.0,Calm,Calm,-,N/A,,Clear,0,2013-02-14 13:15:00
7:35 AM,35.6,35.6,100,30.16,7.0,Calm,Calm,-,N/A,,Clear,0,2013-02-14 13:35:00
7:55 AM,37.0,37.0,100,30.17,10.0,SW,3.5,-,N/A,,Clear,220,2013-02-14 13:55:00
8:15 AM,38.8,38.8,100,30.17,10.0,Calm,Calm,-,N/A,,Clear,0,2013-02-14 14:15:00
8:35 AM,41.0,41.0,100,30.18,10.0,Calm,Calm,-,N/A,,Clear,0,2013-02-14 14:35:00
8:55 AM,42.8,40.3,91,30.18,10.0,West,3.5,-,N/A,,Clear,260,2013-02-14 14:55:00
9:15 AM,45.3,40.8,84,30.19,10.0,WSW,3.5,-,N/A,,Clear,240,2013-02-14 15:15:00
9:35 AM,47.8,39.4,72,30.19,10.0,NW,3.5,-,N/A,,Clear,310,2013-02-14 15:35:00
9:55 AM,50.4,38.3,63,30.18,10.0,Calm,Calm,-,N/A,,Clear,0,2013-02-14 15:55:00
10:15 AM,52.7,35.1,51,30.18,10.0,West,5.8,-,N/A,,Clear,280,2013-02-14 16:15:00
10:35 AM,53.6,35.4,50,30.17,10.0,WSW,5.8,-,N/A,,Clear,240,2013-02-14 16:35:00
10:55 AM,54.9,33.3,44,30.17,10.0,NW,4.6,-,N/A,,Clear,310,2013-02-14 16:55:00
11:15 AM,56.1,34.2,44,30.17,10.0,North,4.6,-,N/A,,Clear,350,2013-02-14 17:15:00
11:35 AM,56.7,33.4,42,30.16,10.0,Calm,Calm,-,N/A,,Clear,0,2013-02-14 17:35:00
11:55 AM,57.6,33.3,40,30.16,10.0,West,3.5,-,N/A,,Clear,270,2013-02-14 17:55:00
12:15 PM,59.0,34.0,39,30.15,10.0,WNW,3.5,-,N/A,,Clear,290,2013-02-14 18:15:00
12:35 PM,59.2,32.0,36,30.14,10.0,NNW,5.8,-,N/A,,Clear,340,2013-02-14 18:35:00
12:55 PM,59.9,32.4,35,30.13,10.0,Calm,Calm,-,N/A,,Clear,0,2013-02-14 18:55:00
1:15 PM,60.4,29.5,31,30.13,10.0,NW,6.9,-,N/A,,Clear,310,2013-02-14 19:15:00
1:35 PM,61.0,29.5,30,30.12,10.0,NW,4.6,-,N/A,,Clear,310,2013-02-14 19:35:00
1:55 PM,61.7,27.9,28,30.11,10.0,NW,3.5,-,N/A,,Clear,320,2013-02-14 19:55:00
2:15 PM,61.9,28.4,28,30.10,10.0,Calm,Calm,-,N/A,,Clear,0,2013-02-14 20:15:00
2:35 PM,62.4,27.7,27,30.09,10.0,NW,4.6,-,N/A,,Clear,310,2013-02-14 20:35:00
2:55 PM,62.8,26.8,26,30.09,10.0,NW,5.8,-,N/A,,Clear,310,2013-02-14 20:55:00
3:15 PM,63.0,26.8,25,30.09,10.0,West,5.8,-,N/A,,Clear,270,2013-02-14 21:15:00
3:35 PM,63.3,27.9,26,30.09,10.0,WNW,4.6,-,N/A,,Clear,290,2013-02-14 21:35:00
3:55 PM,63.0,28.2,27,30.10,10.0,Calm,Calm,-,N/A,,Clear,0,2013-02-14 21:55:00
4:15 PM,63.0,27.3,26,30.09,10.0,WNW,4.6,-,N/A,,Clear,300,2013-02-14 22:15:00
4:35 PM,62.2,28.4,28,30.09,10.0,West,3.5,-,N/A,,Clear,260,2013-02-14 22:35:00
4:55 PM,61.9,30.0,30,30.10,10.0,Calm,Calm,-,N/A,,Clear,0,2013-02-14 22:55:00
5:15 PM,59.4,33.1,37,30.10,10.0,Calm,Calm,-,N/A,,Clear,0,2013-02-14 23:15:00
5:35 PM,54.0,39.7,59,30.10,10.0,Calm,Calm,-,N/A,,Clear,0,2013-02-14 23:35:00
5:55 PM,51.1,40.8,68,30.10,10.0,Calm,Calm,-,N/A,,Clear,0,2013-02-14 23:55:00
6:15 PM,49.5,40.5,71,30.11,10.0,Calm,Calm,-,N/A,,Clear,0,2013-02-15 00:15:00
6:35 PM,47.5,40.1,76,30.11,10.0,South,3.5,-,N/A,,Clear,170,2013-02-15 00:35:00
6:55 PM,45.5,40.1,81,30.11,10.0,Calm,Calm,-,N/A,,Clear,0,2013-02-15 00:55:00
7:15 PM,44.1,41.0,89,30.11,10.0,Calm,Calm,-,N/A,,Clear,0,2013-02-15 01:15:00
7:35 PM,43.2,40.5,90,30.12,10.0,Calm,Calm,-,N/A,,Clear,0,2013-02-15 01:35:00
7:55 PM,42.8,41.0,93,30.12,10.0,Calm,Calm,-,N/A,,Clear,0,2013-02-15 01:55:00
8:15 PM,41.9,41.7,99,30.12,10.0,Calm,Calm,-,N/A,,Clear,0,2013-02-15 02:15:00
8:35 PM,41.5,40.5,96,30.13,10.0,Calm,Calm,-,N/A,,Clear,0,2013-02-15 02:35:00
9:15 PM,40.5,40.5,100,30.13,10.0,Calm,Calm,-,N/A,,Clear,0,2013-02-15 03:15:00
9:35 PM,39.4,39.4,100,30.13,10.0,Calm,Calm,-,N/A,,Clear,0,2013-02-15 03:35:00
9:55 PM,39.4,39.4,100,30.14,10.0,Calm,Calm,-,N/A,,Clear,0,2013-02-15 03:55:00
10:15 PM,38.5,38.5,100,30.14,10.0,South,3.5,-,N/A,,Clear,180,2013-02-15 04:15:00
10:35 PM,38.8,38.8,100,30.14,10.0,South,3.5,-,N/A,,Clear,170,2013-02-15 04:35:00
10:55 PM,38.7,38.7,100,30.13,10.0,Calm,Calm,-,N/A,,Clear,0,2013-02-15 04:55:00
11:15 PM,40.5,39.6,97,30.13,10.0,Calm,Calm,-,N/A,,Clear,0,2013-02-15 05:15:00
11:35 PM,38.7,38.7,100,30.13,10.0,Calm,Calm,-,N/A,,Clear,0,2013-02-15 05:35:00
11:55 PM,38.8,38.3,98,30.13,10.0,Calm,Calm,-,N/A,,Clear,0,2013-02-15 05:55:00